Current weather by "City, St" or "zip code"  
 

Current Conditions: Topeka, Forbes Field, KS

Fair


14.0 F

Last Updated on Jan 19 2022, 10:53 pm CST
Humidity: 51%
Wind Speed: N 17.3 G 27.6 mph
Barometer 30.61 in
Dewpoint: -0.9 F
Visibility: 10.00 mi
Precip: --
Heat Index: NA
Wind Chill: -3 F
Current conditions at:

Topeka, Forbes Field, KS (KFOE)

Lat: 38.94139 Lon: 95.65056

Local Radar Image active severe weather and emergency alerts image image weather storm and storm spotter reports image weather observation monitoring service image
Local
Radar
Active
Alerts
Storm Reports Obs
Monitoring

Sign-up For Email & Text Message Weather Alert Notification Services



Advertise Here

Observation History for Topeka, Forbes Field, KS


Time Wind
(mph)
Vis
(mi)
Weather Precip (in) Temperature (F) Relative
Humidity
Wind
Chill
(F)
Heat
Index
(F)
Pressure
Air Dwpt altimeter
(in)
sea level
(mb)
Rmks
10:53 pm CST N 17.3 G 27.6 10.00 Fair -- 14.0 -0.9 51% -3 NA 30.61 1038.2
9:53 pm CST N 13.8 10.00 Fair -- 15.0 1.0 53% NA NA 30.58 1037.4
8:53 pm CST N 10.4 G 24.2 10.00 Mostly Cloudy -- 16.0 1.0 51% 4 NA 30.57 1036.7
7:53 pm CST N 12.7 G 21.9 10.00 Mostly Cloudy -- 16.0 1.9 54% 2 NA 30.55 1036.2
6:53 pm CST N 15.0 G 25.3 10.00 Partly Cloudy -- 17.0 1.9 51% 2 NA 30.52 1035.2
5:53 pm CST N 19.6 G 27.6 10.00 Overcast -- 18.0 1.9 49% 2 NA 30.48 1033.5
4:53 pm CST N 16.1 G 29.9 10.00 Overcast -- 19.0 1.9 47% 4 NA 30.45 1032.7
3:53 pm CST N 17.3 G 25.3 10.00 Partly Cloudy -- 20.0 3.9 50% 5 NA 30.43 1031.7
2:53 pm CST N 12.7 G 29.9 10.00 A Few Clouds -- 21.0 5.0 50% 9 NA 30.40 1030.5
1:53 pm CST N 17.3 G 27.6 10.00 Mostly Cloudy -- 21.0 5.0 50% 7 NA 30.38 1029.9
12:53 pm CST N 24.2 G 35.7 10.00 Mostly Cloudy and Breezy -- 21.0 3.9 47% 4 NA 30.37 1029.6
11:53 am CST N 18.4 G 29.9 10.00 Fair -- 23.0 6.1 48% 9 NA 30.37 1029.4
10:53 am CST N 18.4 G 28.8 10.00 Fair -- 23.0 8.1 53% 9 NA 30.36 1029.1
9:53 am CST N 17.3 G 27.6 10.00 Fair -- 21.0 7.0 54% 7 NA 30.33 1028.0
8:53 am CST N 25.3 G 38.0 10.00 Fair and Breezy -- 21.0 6.1 52% 4 NA 30.27 1026.0
7:53 am CST N 23.0 G 32.2 10.00 Fair and Breezy -- 23.0 10.9 60% 7 NA 30.22 1024.3
6:53 am CST N 18.4 G 39.1 10.00 Fair -- 26.0 14.0 60% 13 NA 30.17 1022.3
5:53 am CST N 18.4 G 31.1 10.00 Fair -- 27.0 18.0 69% 14 NA 30.12 1020.7
4:53 am CST N 18.4 G 31.1 10.00 Fair -- 29.0 18.0 63% 17 NA 30.07 1018.7
3:53 am CST N 19.6 G 29.9 10.00 Fair -- 32.0 24.1 73% 20 NA 30.03 1017.3
2:53 am CST N 15.0 G 27.6 10.00 Fair -- 35.0 27.0 72% 25 NA 30.02 1016.7
1:53 am CST N 13.8 G 26.5 10.00 A Few Clouds -- 37.0 30.0 76% 28 NA 29.98 1015.5
12:53 am CST N 15.0 G 25.3 10.00 Fair -- 40.0 32.0 73% 32 NA 29.95 1014.4
11:53 pm CST N 21.9 G 31.1 10.00 Fair and Breezy -- 44.0 33.1 65% 35 NA 29.92 1013.4

Regional Weather Observation


Lawrence, Lawrence Municipal Airport, KS (KLWC)

Fair
14.0 F

Topeka, Forbes Field, KS (KFOE)

Fair
14.0 F

Manhattan, Manhattan Municipal Airport, KS (KMHK)

Fair
13.0 F

Fort Riley - Marshall AAF, KS (KFRI)

A Few Clouds
14.0 F

Ottawa Municipal Airport, KS (KOWI)

Overcast
16.0 F

Coffey County Airport, KS (KUKL)

Fair and Breezy
14.0 F

Advertise Here


Advertise Here